Satellite-Ground Cal/Val Site Overpasses Predictions

Prediction of Satellite NPP Overpassing Cal/Val Site: Antarctic Dome C

Ground Cal/Val Site Location: Latitude: -75.10, Longitude: 123.35; Satellite-Ground Site NADIR distance within 100 km.

Table of predicted overpasses for the next 14.0 days since TLE Epoch: 10/16/2021
Interval Starting Time Ending Time Minimum Distance Time Minimum Distance (km)
1 10/18/2021 14:49:37 10/18/2021 14:50:07 10/18/2021 14:49:52 10.24
2 10/20/2021 07:32:29 10/20/2021 07:32:59 10/20/2021 07:32:44 1.46
3 10/23/2021 14:56:02 10/23/2021 14:56:31 10/23/2021 14:56:16 26.90
4 10/24/2021 14:37:20 10/24/2021 14:37:37 10/24/2021 14:37:28 80.33
5 10/25/2021 07:38:55 10/25/2021 07:39:22 10/25/2021 07:39:08 37.79
6 10/26/2021 07:20:10 10/26/2021 07:20:31 10/26/2021 07:20:20 71.98
7 10/28/2021 15:02:30 10/28/2021 15:02:52 10/28/2021 15:02:41 64.44
